AQT-D (44791 NORAD) Tracking and Keplerian Element Data

This shows tracking and keplerian element data for the satellite.

Feedback or suggestion? Click here.




ElementValue
Catalog44791
NameAQT-D
Epoch Orbit13770
Epoch Day110.43976283
Epoch Year2022
RAAN190.5835
Inclination51.6057
Eccentricity0.0007794
Argument of Perigee324.7317
Mean Anonmoly35.3191
Mean Motion16.36070405
Decay Rate0.06942543
L11 44791U 98067QW 22110.43976283 .06942543 12381-4 78632-3 0 9994
L22 44791 51.6057 190.5835 0007794 324.7317 35.3191 16.36070405137708



Live tracking and technical data element details for AQT-D (NORAD 44791). AQT-D can be tracked NOW for your location showing map with azimuth and elevation plus other details from your city location.







IsCatalogInMostPopularTable: catalog: 44791, numindb: 305
Update: records affected: 1



GetName: 44791 AQT-D

Hit Count: updated at: Sat, 06 Dec 2025 13:22:38 GMT